Location: Most
(50.5133°N, 13.6207°E)
Time: 02:26:36
(UTC+01:00)

Oscar 11 - Visible Passes

Search period start: 27 November 2022 00:00
Search period end: 07 December 2022 00:00
Orbit: 610 x 623 km, 97.6° (Epoch: 26 November)

Date Brightness Start Highest point End Pass type
(mag) Time Alt. Az. Time Alt. Az. Time Alt. Az.
27 Nov 9.0 04:04:19 10° NE 04:07:59 26° E 04:08:09 26° E visible
27 Nov 7.5 05:40:11 10° N 05:44:09 38° WNW 05:45:13 32° W visible
27 Nov 9.4 16:39:17 10° SSW 16:43:00 28° W 16:46:45 10° NW visible
28 Nov 8.4 04:20:20 10° NNE 04:24:06 37° E 04:24:06 37° E visible
28 Nov 7.9 05:56:40 10° N 06:00:18 27° WNW 06:01:10 25° W visible
28 Nov 9.9 16:56:11 10° SW 16:59:24 20° W 17:02:37 10° NW visible
29 Nov 7.8 04:36:26 10° NNE 04:40:06 49° ENE 04:40:06 49° ENE visible
29 Nov 8.3 06:13:14 10° NNW 06:16:24 20° WNW 06:17:10 19° WNW visible
29 Nov 10.1 17:13:29 10° WSW 17:15:50 14° W 17:18:11 10° NW visible
30 Nov 7.4 04:52:38 10° NNE 04:56:07 57° NNE 04:56:07 57° NNE visible
30 Nov 8.6 06:29:59 10° NNW 06:32:29 15° WNW 06:33:12 15° WNW visible
01 Dec 10.1 03:34:18 10° NE 03:35:07 12° ENE 03:35:07 12° ENE visible
01 Dec 7.4 05:08:54 10° N 05:12:11 50° N 05:12:11 50° N visible
01 Dec 8.9 06:47:11 10° NW 06:48:30 11° NW 06:49:16 11° WNW visible
02 Dec 9.8 03:49:51 10° NE 03:51:12 16° ENE 03:51:12 16° ENE visible
02 Dec 7.6 05:25:14 10° N 05:28:17 39° NNW 05:28:17 39° NNW visible
03 Dec 9.5 04:05:43 10° NE 04:07:19 19° NE 04:07:19 19° NE visible
03 Dec 8.0 05:41:38 10° N 05:44:23 30° NNW 05:44:23 30° NNW visible
03 Dec 9.5 16:40:47 10° SSW 16:44:27 27° W 16:48:07 10° NW visible
04 Dec 9.2 04:21:43 10° NNE 04:23:27 22° NE 04:23:27 22° NE visible
04 Dec 8.3 05:58:06 10° N 06:00:31 23° NW 06:00:31 23° NW visible
04 Dec 9.9 16:57:43 10° SW 17:00:50 19° W 17:03:57 10° NW visible
05 Dec 8.9 04:37:50 10° NNE 04:39:36 23° NNE 04:39:36 23° NNE visible
05 Dec 8.6 06:14:41 10° NNW 06:16:41 18° NW 06:16:41 18° NW visible
05 Dec 10.2 17:15:05 10° WSW 17:17:16 14° W 17:19:27 10° WNW visible
06 Dec 8.8 04:54:01 10° NNE 04:55:46 24° NNE 04:55:46 24° NNE visible
06 Dec 8.8 06:31:28 10° NNW 06:32:51 14° NW 06:32:51 14° NW visible
